User: anonymous   Login
Location: Brno
(49.2000°N, 16.6330°E)
Time: 13:32:37
(UTC+01:00)
Language:

Cosmos 1459 Rocket - Orbit

View from above orbital plane
View from above orbital plane
View from above satellite
View from above satellite

Ground track
Ground track

The orbit data is extracted from the following two-line orbital elements,

1 14059U 83042B   16339.54736582  .00000088  00000-0  70683-4 0  9992
2 14059  82.9724 206.3940 0043866  93.2419 281.7161 13.78567564688945
Epoch (UTC): 04 December 2016 13:08:12
Eccentricity: 0.0043866
inclination: 82.9724°
perigee height: 937 km
apogee height: 1001 km
right ascension of ascending node: 206.3940°
argument of perigee: 93.2419°
revolutions per day: 13.78567564
mean anomaly at epoch: 281.7161°
orbit number at epoch: 68894

The dashed part of the orbit path shows where the satellite is in the earth's shadow,  

DLR